Location: Newark
(47.0667°N, 8.7500°E)
Time: 11:55:33
(UTC+00:00)

N. Korean satellite - Visible Passes

Search period start: 28 November 2020 00:00
Search period end: 08 December 2020 00:00
Orbit: 452 x 504 km, 97.2° (Epoch: 28 November)

Date Brightness Start Highest point End Pass type
(mag) Time Alt. Az. Time Alt. Az. Time Alt. Az.
28 Nov 9.8 03:55:16 10° ENE 03:57:12 14° E 03:59:07 10° ESE visible
28 Nov 6.8 05:27:19 10° N 05:30:46 45° WNW 05:34:14 10° SW visible
29 Nov 6.6 05:00:55 10° NNE 05:04:31 84° ESE 05:08:10 10° SSW visible
29 Nov 9.9 17:14:18 10° WSW 17:15:46 12° W 17:17:15 10° WNW visible
30 Nov 8.0 04:34:46 10° NNE 04:38:11 39° E 04:41:37 10° SSE visible
30 Nov 8.1 06:08:51 10° NNW 06:11:14 17° WNW 06:13:38 10° WSW visible
30 Nov 9.1 16:46:25 10° SSW 16:49:15 24° W 16:52:08 10° NW visible
01 Dec 9.3 04:09:00 10° NE 04:11:44 20° E 04:14:29 10° SE visible
01 Dec 7.3 05:41:53 10° N 05:45:07 31° WNW 05:48:23 10° SW visible
01 Dec 7.5 16:19:29 10° S 16:22:49 51° W 16:26:13 10° NNW visible
02 Dec 10.2 03:44:39 10° E 03:45:11 10° E 03:45:44 10° E visible
02 Dec 6.5 05:15:19 10° N 05:18:54 64° WNW 05:22:32 10° SSW visible
03 Dec 7.1 04:48:59 10° NNE 04:52:36 60° E 04:56:13 10° S visible
03 Dec 9.7 17:01:23 10° SW 17:03:41 17° W 17:06:01 10° NW visible
04 Dec 8.6 04:22:57 10° NE 04:26:10 29° E 04:29:25 10° SSE visible
04 Dec 7.8 05:56:30 10° NNW 05:59:23 22° WNW 06:02:16 10° WSW visible
04 Dec 8.4 16:34:02 10° SSW 16:37:10 33° W 16:40:23 10° NNW visible
05 Dec 9.7 03:57:27 10° NE 03:59:40 15° E 04:01:51 10° SE visible
05 Dec 6.9 05:29:43 10° N 05:33:11 42° WNW 05:36:40 10° SW visible
05 Dec 6.7 16:07:20 10° S 16:10:45 75° WSW 16:14:16 10° NNW visible
06 Dec 6.5 05:03:13 10° NNE 05:06:54 89° WSW 05:10:35 10° SSW visible
06 Dec 10.0 17:16:48 10° WSW 17:18:05 12° W 17:19:23 10° WNW visible
07 Dec 7.8 04:37:00 10° NNE 04:40:30 42° E 04:44:02 10° S visible
07 Dec 8.2 06:11:11 10° NNW 06:13:31 16° WNW 06:15:52 10° WSW visible
07 Dec 9.2 16:48:41 10° SSW 16:51:29 23° W 16:54:21 10° NW visible
